Regional Weather Roundup
Issued by NWS

Home | Current Version | Previous Version | Graphics & Text | Print | Product List | Glossary On
Versions: 1 2 3 4 5 6 7 8 9 10 11 12 13 14 15 16 17 18 19 20 21 22 23 24 25 26 27 28 29 30 31 32 33 34 35 36 37 38 39 40 41 42 43 44 45 46 47 48 49 50
000
ASUS43 KMPX 252010
RWRMN
WEATHER ROUNDUP FOR MINNESOTA
NATIONAL WEATHER SERVICE TWIN CITIES/CHANHASSEN MN
300 PM CDT SAT OCT 25 2014


NOTE: "FAIR" INDICATES FEW OR NO CLOUDS BELOW 12,000 FEET WITH NO
SIGNIFICANT WEATHER AND/OR OBSTRUCTIONS TO VISIBILITY. N/A MEANS
CURRENT SKY AND/OR WEATHER CONDITIONS ARE NOT AVAILABLE.

MNZ060>063-068>070-252100-
   Twin Cities Metro

CITY           SKY/WX    TMP DP  RH WIND       PRES   REMARKS
TWIN CITIES    LGT RAIN  62  27  26 W20G26    30.04S
ST PAUL        SUNNY     62  30  29 W15       30.03F
CRYSTAL        SUNNY     64  28  25 NW15      30.03S
BLAINE         SUNNY     64  27  24 W16G30    30.02S
LAKEVILLE      SUNNY     61  28  29 W17G25    30.03F
EDEN PRAIRIE   SUNNY     63  27  25 NW14G25   30.03F
SOUTH ST PAUL  SUNNY     63  28  26 NW14G23   30.03S
LAKE ELMO      FAIR      63  32  31 W16       30.03S
$$
MNZ001>005-007-008-013>017-022>024-027-028-252100-
   Northwest Minnesota

CITY           SKY/WX    TMP DP  RH WIND       PRES   REMARKS
BEMIDJI        SUNNY     55  28  35 NW22G31   30.01R
HALLOCK        SUNNY     61  19  20 NW24G30   30.01F
ROSEAU         SUNNY     57  27  30 NW16G30   29.97F
WARROAD        SUNNY     55  28  35 W18G28    29.97R
THIEF RVR FALL SUNNY    N/A N/A N/A NW22G30   30.03R
CROOKSTON      SUNNY     59  27  29 NW20G25   30.06S
FOSSTON        SUNNY     57  27  30 NW15G22   30.05S
DETROIT LAKES  SUNNY     55  28  35 NW15G22   30.08F
MOORHEAD       SUNNY     61  10  13 NW16      30.09F
PARK RAPIDS    SUNNY     58  24  27 NW20G30   30.03S
MAHNOMEN       FAIR      57  25  29 NW17G28   30.05F
$$
MNZ006-009>011-018-025>026-252100-
   North Central Minnesota

CITY           SKY/WX    TMP DP  RH WIND       PRES   REMARKS
BAUDETTE       SUNNY     54  27  35 NW18G32   29.95
FLAG ISLAND    SUNNY     52  30  43 NW29G35   29.92R
INTL FALLS     SUNNY     54  27  35 W20G35    29.91R
WASKISH        SUNNY     55  34  44 W16       29.98S
BIG FORK       SUNNY     55  27  33 W14G26    29.95S
LONGVILLE      SUNNY     57  25  28 NW13G23   30.00S
GRAND RAPIDS   SUNNY     54  27  35 NW20G26   29.96S
CRANE LAKE     SUNNY     52  27  37 NW8G23    29.89S
ORR            SUNNY     55  23  28 W18G25    29.88R
COOK           SUNNY     55  27  33 W22G30    29.90R
WALKER         FAIR      56  24  29 W20G25    30.00S
$$
MNZ012-019>021-037-252100-
   Northeast Minnesota

CITY           SKY/WX    TMP DP  RH WIND       PRES   REMARKS
DULUTH         SUNNY     58  27  30 W22G31    29.89F
ELY            SUNNY     54  25  32 NW14G26   29.85R
HIBBING        SUNNY     58  24  27 W17G28    29.91F
EVELETH        SUNNY     55  28  35 W15G30    29.90F
DULUTH HARBOR  SUNNY     61  28  29 W28       29.91S
TWO HARBORS    SUNNY     63   5  10 W10G23    29.85S
SILVER BAY     SUNNY     61  27  27 W10G21    29.83R
GRAND MARAIS     N/A     59  30  33 W12G26    29.77R
G MARAIS ARPRT SUNNY     50  27  40 W13G31    29.78R
$$
MNZ029>031-032-039>041-046>048-054>057-064-252100-
   West Central Minnesota

CITY           SKY/WX    TMP DP  RH WIND       PRES   REMARKS
FERGUS FALLS   SUNNY     59  21  23 NW13G22   30.09F
WHEATON        SUNNY     59  28  31 NW10      30.11F
MORRIS         SUNNY     63  30  29 NW14      30.08F
ALEXANDRIA     SUNNY     58  25  28 NW18G24   30.09F
ELBOW LAKE     FAIR      57  29  34 NW13      30.08F
WADENA         SUNNY     55  30  38 NW10G20   30.06S
GLENWOOD       SUNNY     59  27  29 NW18G24   30.09S
APPLETON       SUNNY     64  25  22 NW12G17   30.09F
BENSON         SUNNY     63  28  27 N14G20    30.09F
ORTONVILLE     SUNNY     63  28  27 NW13      30.10F
MADISON        SUNNY     66  30  26 N13G18    30.10F
WILLMAR        FAIR      63  25  23 NW21      30.09F
$$
MNZ033>034-036-042>043-049>051-058-059-252100-
   Central Minnesota

CITY           SKY/WX    TMP DP  RH WIND       PRES   REMARKS
ST CLOUD       SUNNY     65  23  20 W21G28    30.04S
SAUK CENTRE    FAIR      58  27  30 NW17G23   30.07F
PAYNESVILLE    SUNNY     57  24  28 W16G24    30.08S
AITKIN         SUNNY     63  16  16 W9G20     29.98R
PINE RIVER     SUNNY     57  28  33 W14G22    30.05R
BRAINERD       SUNNY     58  23  26 W15G25    30.03R
STAPLES        SUNNY     57  25  28 W12G23    30.05S
LONG PRAIRIE   FAIR      57  25  28 W16G24    30.06F
LITTLE FALLS   SUNNY     59  23  25 W15G23    30.04S
LITCHFIELD     SUNNY     63  27  25 NW13G20   30.08S
BUFFALO        SUNNY     62  25  24 W14G23    30.06S
MAPLE LAKE     SUNNY     62  29  29 NW15G21   30.06S
$$
MNZ037-044-045-052-053-252100-
   East Central Minnesota

CITY           SKY/WX    TMP DP  RH WIND       PRES   REMARKS
PRINCETON      SUNNY     64  25  22 W13G26    30.03S
MORA           SUNNY     59  23  25 NW16G28   30.01S
CAMBRIDGE      SUNNY     64  39  39 W13G23    30.00S
RUSH CITY      MOSUNNY   63  25  23 NW13G23   30.00R
MOOSE LAKE     SUNNY     61  27  27 NW13G23   29.94S
HINCKLEY       FAIR      61  28  29 W10G17    29.99S
CLOQUET        SUNNY     57  19  23 W21G28    29.93S
MCGREGOR       SUNNY     57  25  28 NW15G25   29.98S
$$
MNZ071>073-080-081-089-090-097-098-252100-
   Southwest Minnesota

CITY           SKY/WX    TMP DP  RH WIND       PRES   REMARKS
MONTEVIDEO     SUNNY     64  30  27 N14G21    30.10F
GRANITE FALLS  SUNNY     63  32  30 W12       30.11S
CANBY          SUNNY     64  31  29 N8        30.12S
MARSHALL       SUNNY     63  28  27 NW16      30.10F
REDWOOD FALLS  SUNNY     65  30  27 NW10      30.09F
OLIVIA         SUNNY     63  32  31 NW13      30.08S
PIPESTONE      SUNNY     64  27  24 NW5       30.11F
WINDOM         SUNNY     64  27  24 NW9       30.11S
WORTHINGTON    SUNNY     64  28  25 N5        30.12S
JACKSON        SUNNY     66  25  20 NW7G18    30.11S
TRACY          SUNNY     65  30  27 NW8       30.11S
SLAYTON        SUNNY     63  27  25 NW5       30.12F
$$
MNZ065>067-074>077-082>085-091>093-252100-
   South Central Minnesota

CITY           SKY/WX    TMP DP  RH WIND       PRES   REMARKS
MANKATO        SUNNY     64  28  25 NW17      30.07F
NEW ULM        SUNNY     64  34  32 NW13      30.08S
ST JAMES       SUNNY     66  25  20 NW10G17   30.10S
FAIRMONT       SUNNY     66  -8   5 NW10G21   30.09F
GLENCOE        SUNNY     64  32  30 NW16      30.06F
FARIBAULT      SUNNY     64  28  25 NW14G24   30.06S
OWATONNA       SUNNY     64  27  24 NW18      30.06S
WASECA         SUNNY     63  21  20 NW16      30.08F
ALBERT LEA     SUNNY     64  27  24 NW13G18   30.06F
$$
MNZ078>079-086>088-094>096-252100-
   Southeast Minnesota

CITY           SKY/WX    TMP DP  RH WIND       PRES   REMARKS
ROCHESTER      SUNNY     63  29  27 NW13G24   30.05S
RED WING       SUNNY     63  25  23 NW16G22   30.01S
STANTON        SUNNY     64  27  24 NW17G23   30.03S
DODGE CENTER   SUNNY     63  28  27 NW17G24   30.05S
WINONA         SUNNY     63  30  29 W12G17    30.01S
AUSTIN         SUNNY     63  30  29 NW13G23   30.05F
PRESTON        SUNNY     61  30  31 NW17G24   30.04S
$$
ABBREVIATIONS USED IN REMARKS
   TC - TEMPERATURES IN CELSIUS
  WCI - WIND CHILL INDEX
   HX - HEAT INDEX
  VSB - VISIBILITY
$$



USA.gov is the U.S. government's official web portal to all federal, state and local government web resources and services.